Location: St. Louis
(38.6270°N, 90.1994°W)
Time: 01:42:31
(UTC-06:00)

Courier 1B Rocket - Pass Details

Date: 08 December 2021
Orbit: 920 x 1202 km, 28.2° (Epoch: 16 January)

Event Time Altitude Azimuth Distance (km) Brightness Sun altitude
Rises 00:05:03 0° 258° (WSW) 3,654 - -73.9°
Reaches altitude 10° 00:08:06 10° 247° (WSW) 2,670 - -73.8°
Maximum altitude 00:13:25 28° 191° (S) 1,656 - -73.5°
Drops below altitude 10° 00:18:37 10° 134° (SE) 2,601 - -73.2°
Sets 00:21:33 0° 123° (ESE) 3,544 - -73.0°
